Previsão horária em Pleskovka

Hoje, 3 Março, Quarta-feira

Tempo Temperatura Precipitação Vento Pressão Humidade
00:00 -6°C° 0 mm 3 m/s 739 mmHg 95%
01:00 -7°C° 0 mm 4 m/s 739 mmHg 96%
02:00 -7°C° 0 mm 4 m/s 740 mmHg 96%
03:00 -7°C° 0 mm 4 m/s 740 mmHg 96%
04:00 -7°C° 0.1 mm 4 m/s 740 mmHg 95%
05:00 -6°C° 0.1 mm 5 m/s 740 mmHg 95%
06:00 -6°C° 0.1 mm 5 m/s 741 mmHg 94%
07:00 -7°C° 0 mm 5 m/s 741 mmHg 94%
08:00 -8°C° 0 mm 5 m/s 742 mmHg 93%
09:00 -10°C° 0 mm 5 m/s 742 mmHg 92%
10:00 -8°C° 0 mm 5 m/s 743 mmHg 91%
11:00 -9°C° 0 mm 6 m/s 743 mmHg 90%
12:00 -9°C° 0 mm 6 m/s 743 mmHg 89%
13:00 -8°C° 0 mm 6 m/s 743 mmHg 88%
14:00 -8°C° 0 mm 6 m/s 744 mmHg 88%
15:00 -6°C° 0 mm 6 m/s 744 mmHg 87%
16:00 -7°C° 0 mm 5 m/s 744 mmHg 87%
17:00 -7°C° 0 mm 5 m/s 744 mmHg 86%
18:00 -8°C° 0 mm 4 m/s 744 mmHg 86%
19:00 -8°C° 0 mm 4 m/s 744 mmHg 88%
20:00 -9°C° 0 mm 4 m/s 744 mmHg 91%
21:00 -10°C° 0 mm 5 m/s 744 mmHg 93%
22:00 -8°C° 0 mm 5 m/s 743 mmHg 93%
23:00 -8°C° 0 mm 5 m/s 743 mmHg 93%

Amanhã, 4 Março, Quinta-feira

Tempo Temperatura Precipitação Vento Pressão Humidade
00:00 -8°C° 0 mm 6 m/s 742 mmHg 94%
01:00 -6°C° 0.1 mm 6 m/s 742 mmHg 93%
02:00 -6°C° 0.1 mm 6 m/s 741 mmHg 93%
03:00 -6°C° 0.1 mm 6 m/s 741 mmHg 93%
04:00 -6°C° 0.1 mm 6 m/s 740 mmHg 93%
05:00 -7°C° 0.1 mm 7 m/s 740 mmHg 93%
06:00 -7°C° 0.1 mm 7 m/s 739 mmHg 93%
07:00 -6°C° 0.1 mm 7 m/s 739 mmHg 92%
08:00 -6°C° 0.1 mm 8 m/s 738 mmHg 92%
09:00 -5°C° 0.1 mm 8 m/s 738 mmHg 91%
10:00 -5°C° 0 mm 8 m/s 737 mmHg 91%
11:00 -4°C° 0 mm 9 m/s 737 mmHg 91%
12:00 -4°C° 0 mm 9 m/s 737 mmHg 91%
13:00 -4°C° 0.2 mm 8 m/s 737 mmHg 93%
14:00 -4°C° 0.2 mm 8 m/s 737 mmHg 95%
15:00 -4°C° 0.2 mm 8 m/s 737 mmHg 97%
16:00 -3°C° 0.3 mm 7 m/s 736 mmHg 96%
17:00 -3°C° 0.3 mm 7 m/s 736 mmHg 95%
18:00 -3°C° 0.3 mm 6 m/s 736 mmHg 94%
19:00 -3°C° 0.2 mm 6 m/s 736 mmHg 95%
20:00 -2°C° 0.2 mm 5 m/s 736 mmHg 96%
21:00 -4°C° 0.2 mm 5 m/s 736 mmHg 96%
22:00 -2°C° 0.2 mm 5 m/s 735 mmHg 97%
23:00 -2°C° 0.2 mm 5 m/s 735 mmHg 97%

Depois de amanhã, 5 Março, Sexta-feira

Tempo Temperatura Precipitação Vento Pressão Humidade
00:00 -2°C° 0.2 mm 5 m/s 734 mmHg 97%
01:00 -2°C° 0.4 mm 4 m/s 734 mmHg 97%
02:00 -2°C° 0.4 mm 4 m/s 734 mmHg 97%
03:00 -2°C° 0.4 mm 4 m/s 734 mmHg 98%
04:00 -3°C° 0.6 mm 4 m/s 734 mmHg 97%
05:00 -4°C° 0.6 mm 4 m/s 734 mmHg 97%
06:00 -4°C° 0.6 mm 4 m/s 734 mmHg 96%
07:00 -5°C° 0.2 mm 4 m/s 735 mmHg 95%
08:00 -7°C° 0.2 mm 4 m/s 736 mmHg 94%
09:00 -7°C° 0.2 mm 4 m/s 737 mmHg 94%
10:00 -7°C° 0 mm 4 m/s 737 mmHg 93%
11:00 -7°C° 0 mm 4 m/s 738 mmHg 91%
12:00 -7°C° 0 mm 4 m/s 739 mmHg 90%
13:00 -7°C° 0 mm 4 m/s 740 mmHg 89%
14:00 -6°C° 0 mm 3 m/s 741 mmHg 88%
15:00 -6°C° 0 mm 3 m/s 742 mmHg 87%
16:00 -7°C° 0 mm 2 m/s 742 mmHg 88%
17:00 -8°C° 0 mm 1 m/s 742 mmHg 89%
18:00 -9°C° 0 mm 0 m/s 743 mmHg 90%
19:00 -10°C° 0 mm 0 m/s 743 mmHg 90%
20:00 -10°C° 0 mm 0 m/s 744 mmHg 90%
21:00 -10°C° 0 mm 1 m/s 744 mmHg 90%
22:00 -10°C° 0 mm 1 m/s 744 mmHg 91%
23:00 -10°C° 0 mm 1 m/s 744 mmHg 91%

6 Março, Sábado

Tempo Temperatura Precipitação Vento Pressão Humidade
00:00 -12°C° 0 mm 2 m/s 744 mmHg 91%
01:00 -12°C° 0 mm 2 m/s 744 mmHg 91%
02:00 -12°C° 0 mm 2 m/s 744 mmHg 92%
03:00 -12°C° 0 mm 2 m/s 744 mmHg 92%
04:00 -13°C° 0 mm 2 m/s 744 mmHg 93%
05:00 -13°C° 0 mm 2 m/s 744 mmHg 94%
06:00 -13°C° 0 mm 2 m/s 744 mmHg 94%
07:00 -13°C° 0 mm 2 m/s 744 mmHg 94%
08:00 -13°C° 0 mm 3 m/s 744 mmHg 94%
09:00 -13°C° 0 mm 3 m/s 744 mmHg 94%
10:00 -12°C° 0 mm 3 m/s 744 mmHg 92%
11:00 -11°C° 0 mm 4 m/s 744 mmHg 91%
12:00 -10°C° 0 mm 4 m/s 744 mmHg 89%
13:00 -10°C° 0 mm 4 m/s 745 mmHg 87%
14:00 -10°C° 0 mm 4 m/s 745 mmHg 86%
15:00 -9°C° 0 mm 4 m/s 745 mmHg 84%
16:00 -11°C° 0 mm 4 m/s 745 mmHg 86%
17:00 -12°C° 0 mm 4 m/s 745 mmHg 88%
18:00 -14°C° 0 mm 4 m/s 745 mmHg 90%
19:00 -15°C° 0 mm 4 m/s 746 mmHg 90%
20:00 -16°C° 0 mm 3 m/s 746 mmHg 91%
21:00 -18°C° 0 mm 3 m/s 746 mmHg 91%
22:00 -18°C° 0 mm 3 m/s 746 mmHg 91%
23:00 -18°C° 0 mm 3 m/s 746 mmHg 91%

7 Março, Domingo

Tempo Temperatura Precipitação Vento Pressão Humidade
00:00 -19°C° 0 mm 3 m/s 746 mmHg 91%
01:00 -19°C° 0 mm 3 m/s 746 mmHg 91%
02:00 -19°C° 0 mm 3 m/s 746 mmHg 91%
03:00 -20°C° 0 mm 4 m/s 746 mmHg 92%
04:00 -19°C° 0 mm 4 m/s 745 mmHg 90%
05:00 -20°C° 0 mm 5 m/s 745 mmHg 89%
06:00 -19°C° 0 mm 5 m/s 744 mmHg 88%
07:00 -18°C° 0 mm 6 m/s 744 mmHg 86%
08:00 -17°C° 0 mm 7 m/s 743 mmHg 85%
09:00 -16°C° 0 mm 8 m/s 743 mmHg 83%
10:00 -14°C° 0 mm 9 m/s 742 mmHg 82%
11:00 -12°C° 0 mm 9 m/s 741 mmHg 80%
12:00 -12°C° 0 mm 10 m/s 740 mmHg 79%
13:00 -10°C° 0 mm 10 m/s 739 mmHg 80%
14:00 -10°C° 0 mm 10 m/s 738 mmHg 81%
15:00 -9°C° 0 mm 11 m/s 737 mmHg 81%
16:00 -9°C° 0.3 mm 11 m/s 737 mmHg 85%
17:00 -9°C° 0.3 mm 10 m/s 736 mmHg 89%
18:00 -9°C° 0.3 mm 10 m/s 735 mmHg 92%
19:00 -9°C° 0.4 mm 10 m/s 735 mmHg 92%
20:00 -8°C° 0.4 mm 10 m/s 735 mmHg 92%
21:00 -8°C° 0.4 mm 10 m/s 735 mmHg 92%
22:00 -7°C° 0.3 mm 8 m/s 735 mmHg 92%
23:00 -7°C° 0.3 mm 7 m/s 734 mmHg 92%

8 Março, Segunda-feira

Tempo Temperatura Precipitação Vento Pressão Humidade
00:00 -7°C° 0.3 mm 5 m/s 734 mmHg 92%
01:00 -6°C° 0.4 mm 6 m/s 734 mmHg 93%
02:00 -6°C° 0.4 mm 6 m/s 734 mmHg 93%
03:00 -7°C° 0.4 mm 7 m/s 733 mmHg 94%
04:00 -8°C° 0.1 mm 6 m/s 733 mmHg 93%
05:00 -8°C° 0.1 mm 6 m/s 733 mmHg 92%
06:00 -7°C° 0.1 mm 5 m/s 733 mmHg 91%
07:00 -9°C° 0.2 mm 6 m/s 733 mmHg 89%
08:00 -9°C° 0.2 mm 6 m/s 734 mmHg 86%
09:00 -10°C° 0.2 mm 6 m/s 734 mmHg 84%
10:00 -10°C° 0 mm 6 m/s 735 mmHg 83%
11:00 -10°C° 0 mm 6 m/s 735 mmHg 82%
12:00 -10°C° 0 mm 6 m/s 736 mmHg 81%
13:00 -10°C° 0 mm 6 m/s 737 mmHg 81%
14:00 -10°C° 0 mm 5 m/s 737 mmHg 81%
15:00 -9°C° 0 mm 4 m/s 738 mmHg 81%
16:00 -9°C° 0 mm 3 m/s 738 mmHg 83%
17:00 -12°C° 0 mm 3 m/s 739 mmHg 85%
18:00 -12°C° 0 mm 2 m/s 739 mmHg 87%
19:00 -13°C° 0 mm 2 m/s 739 mmHg 88%
20:00 -11°C° 0 mm 1 m/s 740 mmHg 89%
21:00 -12°C° 0 mm 1 m/s 740 mmHg 90%
22:00 -11°C° 0.1 mm 1 m/s 740 mmHg 92%
23:00 -11°C° 0.1 mm 1 m/s 741 mmHg 94%
Mostrar mais

Necessitamos do seu Consentimento

A Meteoprog e os seus Fornecedores de Serviços podem armazenar e aceder a dados pessoais como cookies, identificadores do dispositivo ou outras tecnologias semelhantes existentes no seu dispositivo e processar estes dados para personalizar conteúdos e anúncios, assim como funcionalidades nas redes sociais e análise de tráfego.

  • Armazenar e/ou aceder a informações no seu dispositivo

    Os cookies, identificadores do dispositivo ou outras informações podem ser armazenados ou acedidos no seu dispositivo, para os fins acima indicados.

  • Anúncios e conteúdos personalizados, medição de anúncios e conteúdos, dados sobre o público-alvo e desenvolvimento de produtos

    Os anúncios e os conteúdos podem ser personalizados com base num perfil. Podem ser adicionados dados adicionais para uma maior personalização dos anúncios e dos conteúdos. A eficácia dos anúncios e dos conteúdos pode ser medida. Podem ser obtidas informações sobre o público que visualizou os anúncios e os conteúdos. Estes dados podem ser usados para desenvolver ou melhorar sistemas, softwares ou a experiência do utilizador.

Ao clicar em "Eu concordo”, permitirá o uso de cookies, identificadores do dispositivo e web beacons mencionados ou outras tecnologias semelhantes. As configurações do navegador do seu dispositivo podem ser alteradas.

Para certos fins, podem ser invocados interesses legítimos ao invés de consentimento. Pode ler mais informação sobre este assunto na nossa Política de Privacidade e Cookies.